Regional Weather Roundup
Issued by NWS Wilmington, NC

Home | Current Version | Previous Version | Text Only | Print | Product List | Glossary On
Versions: 1 2 3 4 5 6 7 8 9 10 11 12 13 14 15 16 17 18 19 20 21 22 23 24 25 26 27 28
000
ASUS42 KILM 281813
RWRILM
RWRILM
REGIONAL HOURLY WEATHER ROUNDUP
NATIONAL WEATHER SERVICE WILMINGTON NC
200 PM EDT SAT MAY 28 2016

NOTE: "FAIR" INDICATES FEW OR NO CLOUDS BELOW 12,000 FEET WITH NO
SIGNIFICANT WEATHER AND/OR OBSTRUCTIONS TO VISIBILITY.

...............WFO WILMINGTON COUNTY WARNING AREA...............

......COASTAL NC AND SC COUNTIES......

CITY           SKY/WX    TMP DP  RH WIND       PRES   REMARKS
WILMINGTON     PTSUNNY   80  65  59 E15G24    30.14F
N MYRTLE BEACH LGT RAIN  78  69  73 E12       30.12F
MYRTLE BEACH   LGT RAIN  79  64  61 E12       30.14F

......INLAND NC AND SC COUNTIES.......

CITY           SKY/WX    TMP DP  RH WIND       PRES   REMARKS
LUMBERTON      CLOUDY    88  62  41 E7        30.13F
ELIZABETHTOWN  CLOUDY    83  66  57 CALM      30.14F
WHITEVILLE     PTSUNNY   80  66  63 NE5       30.13F
FLORENCE       CLOUDY    85  64  49 E12       30.13F
DARLINGTON     PTSUNNY   85  65  51 VRB3      30.14F
KINGSTREE      DRIZZLE   81  61  50 E5        30.12S
HARTSVILLE     FAIR      82  61  47 NE7       30.13F
BENNETTSVILLE  PTSUNNY   88  63  42 NE8       30.13F
CONWAY         RAIN      73  68  83 CALM      30.13S
GEORGETOWN     LGT RAIN  72  68  88 NE6       30.13F
MARION         PTSUNNY   81  63  54 NE10      30.13F

....................REST OF NORTH CAROLINA......................

.........EASTERN NC.........

CITY           SKY/WX    TMP DP  RH WIND       PRES   REMARKS
CAPE HATTERAS  SUNNY     85  69  58 SE12      30.18F
JACKSONVILLE   NOT AVBL
MOREHEAD CITY  MOSUNNY   81  69  67 E14       30.16F
KENANSVILLE    CLOUDY    82  62  51 E3        30.16F
NEW BERN       PTSUNNY   83  66  56 E10       30.17F
ELIZABETH CITY SUNNY     82  66  58 E12       30.20F

.........CENTRAL NC.........

CITY           SKY/WX    TMP DP  RH WIND       PRES   REMARKS
RALEIGH DURHAM MOSUNNY   83  50  31 CALM      30.18F
ROCKY MOUNT    MOSUNNY   85  62  46 MISG      30.17F
ROANOKE RAPIDS NOT AVBL
FAYETTEVILLE   SUNNY     86  60  41 VRB6      30.14F
HOFFMAN        MOSUNNY   85  58  40 E5G13     30.14S

.........WESTERN NC.........

CITY           SKY/WX    TMP DP  RH WIND       PRES   REMARKS
CHARLOTTE      PTSUNNY   82  54  37 E6        30.17F
GREENSBORO     PTSUNNY   81  55  40 E12       30.18F
HICKORY        NOT AVBL
BOONE          NOT AVBL
ASHEVILLE      NOT AVBL

.....................REST OF SOUTH CAROLINA.....................

.........EASTERN SC.........

CITY           SKY/WX    TMP DP  RH WIND       PRES   REMARKS
CHARLESTON     RAIN      74  68  81 NE10      30.11S
BEAUFORT MCAS  CLOUDY    75  67  76 E10G25    30.10R
HILTON HEAD    PTSUNNY   75  70  83 N12       30.10F

.........CENTRAL SC.........

CITY           SKY/WX    TMP DP  RH WIND       PRES   REMARKS
COLUMBIA       CLOUDY    84  65  52 NE9       30.12F
ORANGEBURG     CLOUDY    81  68  64 NE6       30.11F
SUMTER SHAW    PTSUNNY   83  66  56 NE9       30.10F

.........WESTERN SC.........

CITY           SKY/WX    TMP DP  RH WIND       PRES   REMARKS
GREENVILLE     NOT AVBL
ROCK HILL      MOSUNNY   83  54  36 VRB6      30.17F
ANDERSON       PTSUNNY   81  60  48 VRB6      30.16F
CLEMSON        NOT AVBL
GREENWOOD      CLOUDY    79  62  56 NE5       30.17F


...................COASTAL AND OFFSHORE REPORTS..................

................LOCAL PIERS AND NC RESERVE................


STATION/POSITION TIME  SKY/WX   TEMP    WIND        PRES    VSBY
                                AIR SEA DIR/SP/G
                 (UTC)          (F)     (DEG/KT/KT) (MB)    (MI)
JOHNY MRCER PIER 1700            76 77   50/ 12/ 14 1020.3F
NC RESRV MASNBRO NOT AVBL
OCEAN CREST PIER NOT AVBL
SPRINGMAID  PIER 1700            76 76   50/ 13/ 15 1020.0F


................COASTAL AND OFFSHORE BUOYS................


STATION/POSITION TIME  SKY/WX   TEMP    WIND        PRES    VSBY
                                AIR SEA DIR/SP/G
                 (UTC)          (F)     (DEG/KT/KT) (MB)    (MI)
DIMNDSHOAL 41025 1750            78 78   80/ 12/ 12 1021.6F
WVE H/P(F/S)=  6/ 8 SWL H/P/D(F/S/D)=  5/140/ 8

CAPE LOOKOUT     1800            76      70/  9/ 10 1021.0F
ONSLOW BAY 41036 NOT AVBL
ONSLOW BAY 41064 1708            77 75   80/ 12/ 16 1021.1F
ONSLOW BAY 41159 1725               75                N/A
WVE H/P(F/S)=  6/ 9

5SE WRITBC 41038 NOT AVBL
MASNBO INL 41110 1706               75                N/A
WVE H/P(F/S)=  4/ 7

WILM HARBR 41108 1726               74                N/A
WVE H/P(F/S)=  4/ 8

27SE WRITB 41037 1708            77 74   80/ 12/ 16 1020.0F
FRYING PAN 41013 1700            75 76   40/ 17/ 21 1019.3F
SUNST NRSH 41024 1708            77 76  100/ 16/ 21 1020.0F
CAPRS NRSH 41029 1708            74 76   40/ 17/ 25 1019.4F
EDISTO     41004 1750            74 76   30/ 23/ 29 1016.1F
WVE H/P(F/S)=  7/10 SWL H/P/D(F/S/D)=  5/10



..........OFFSHORE BUOYS BEYOND 100 NM OFFSHORE...........
.....IN A TRIANGLE---HAT TO BERMUDA TO BAHAMAS TO HAT.....


STATION/POSITION TIME  SKY/WX   TEMP    WIND        PRES    VSBY
                                AIR SEA DIR/SP/G
                 (UTC)          (F)     (DEG/KT/KT) (MB)    (MI)
150E HAT   41001 NOT AVBL
W BERMUDA  41048 1750            77 76  130/ 14/ 17 1022.5F
WVE H/P(F/S)=  5/ 6 SWL H/P/D(F/S/D)=  3/120/ 7

ATLANTIC S 41049 1750            78 78   80/ 16/ 17 1022.9F
WVE H/P(F/S)=  4/ 7 SWL H/P/D(F/S/D)=  2/120/ 8

E BAHAMAS  41046 1700            74 81   10/ 16/ 19 1019.4F
NE BAHAMAS 41047 1700            75 80  160/ 12/ 14 1019.1R
120E CANVRL41010 1720            79 79  240/ 10/ 12 1015.5F

END




USA.gov is the U.S. government's official web portal to all federal, state and local government web resources and services.